Regional Weather Roundup
Issued by NWS

Home | Current Version | Previous Version | Graphics & Text | Print | Product List | Glossary On
Versions: 1 2 3 4 5 6 7 8 9 10 11 12 13 14 15 16 17 18 19 20 21 22 23 24 25 26 27 28 29 30 31 32 33 34 35 36 37 38 39 40 41 42 43 44 45 46 47 48 49 50
000
ASUS45 KBOU 151310
RWRCO

WEATHER ROUNDUP FOR COLORADO
NATIONAL WEATHER SERVICE DENVER/BOULDER CO
600 AM MST FRI DEC 15 2017

NOTE: "FAIR" INDICATES FEW OR NO CLOUDS BELOW 12000 FEET WITH NO
SIGNIFICANT WEATHER AND/OR OBSTRUCTIONS TO VISIBILITY.

COZ001>005-013-030-031-151400-
...NORTHWEST COLORADO...

CITY           SKY/WX    TMP DP  RH WIND       PRES   REMARKS
CRAIG          FAIR       4  -1  80 W5        30.31F WCI  -5
HAYDEN         FAIR      15   8  73 E15       30.32F WCI   0
MEEKER         FAIR      10   5  80 CALM      30.32S
RABBIT EARS PA FAIR      12  10  92 W12G20    30.24S WCI  -2
STEAMBOAT SPGS FAIR       8   6  92 CALM      30.31F
WALDEN         FAIR      14   5  67 S12       30.25F WCI   0
$$

COZ006>008-011-151400-
...WEST CENTRAL VALLEYS...

CITY           SKY/WX    TMP DP  RH WIND       PRES   REMARKS
GRAND JUNCTION FAIR      20  11  68 E8        30.35F WCI  10
MONTROSE       FAIR      18   9  68 S8        30.39F WCI   8
EAGLE          FAIR       5   0  79 CALM      30.43R
RIFLE          FAIR      13   7  77 CALM      30.39S
DELTA          FAIR      19   7  58 CALM      30.39S
NUCLA          FAIR      19   3  49 E8        30.38  WCI   9
$$

COZ017>023-064>068-151400-
...SOUTHWEST COLORADO...

CITY           SKY/WX    TMP DP  RH WIND       PRES   REMARKS
DURANGO        FAIR       9   8  96 NE5       30.30F WCI   1
CORTEZ         FAIR      11   0  61 E3        30.31F
PAGOSA SPRINGS FAIR      15  11  87 CALM      30.30S
TELLURIDE      FAIR      19  -9  28 SE6       30.33S WCI  11
WOLF CREEK PAS FAIR      21 -17  18 NW3       30.35S
$$

COZ009-010-012-014-032>034-037-058>063-151400-
...CENTRAL COLORADO...

CITY           SKY/WX    TMP DP  RH WIND       PRES   REMARKS
ASPEN          FAIR       7  -1  70 S8        30.32S WCI  -6
BUENA VISTA    FAIR       7  -2  67 W3        30.25F
COPPER MTN     NOT AVBL
BERTHOUD PASS  MOCLDY     9  -2  61 NW29G36   30.21S WCI -14
COTTONWOOD PAS FAIR      32 -13  14 W3        30.22S
GUNNISON       FAIR       3  -1  83 N3        30.39S
KREMMLING      FAIR       3   0  85 CALM      30.39S
LEADVILLE      FAIR       5  -6  60 NE10      30.26S WCI -10
MONARCH PASS   FAIR      10  -6  48 SW31G40   30.34R WCI -12
SALIDA         FAIR      22   1  41 N14       30.32S WCI   9
SUNLIGHT       FAIR      19  -6  32 W7        30.33S WCI  10
WILKERSON PASS FAIR      21 -11  23 NW15G24   30.21S WCI   8
$$

COZ069>075-151400-
...SAN LUIS VALLEY/SANGRE DE CRISTO MOUNTAINS...

CITY           SKY/WX    TMP DP  RH WIND       PRES   REMARKS
ALAMOSA        FAIR      -2  -7  79 SW7       30.30S WCI -15
DEL NORTE      FAIR       8  -2  65 N3        30.30R
LA VETA PASS   FAIR      14   3  62 SW24G32     N/A  WCI  -5
SAGUACHE       FAIR      19   1  45 NW10      30.29S WCI   8
$$

COZ035-036-038>040-151400-
...NORTHERN COLORADO FRONT RANGE...

CITY           SKY/WX    TMP DP  RH WIND       PRES   REMARKS
DENVER INTL AP FAIR      30   6  36 SW18      30.02F WCI  18
DMNS CITY PARK NOT AVBL
AURORA         PTCLDY    27   7  42 S14       30.04F WCI  16
FRONT RANGE AP FAIR      33   8  34 SW16G22   30.04F WCI  23
ERIE MUNI ARPT FAIR      17  14  87 N5        30.09S WCI  10
BOULDER MUN AP FAIR      34  10  37 SW3       30.02S
CENTENNIAL     FAIR      27   8  44 S12       30.05F WCI  17
BROOMFIELD     PTCLDY   N/A N/A N/A W16       30.03F
FORT COLLINS   FAIR      20  15  81 CALM      30.04F
LONGMONT       FAIR      17  12  80 CALM      30.05F
$$

COZ041-046-047-076>085-087-088-151400-
...PIKES PEAK/PALMER DIVIDE AND SOUTHERN FOOTHILLS...

CITY           SKY/WX    TMP DP  RH WIND       PRES   REMARKS
COLO. SPRINGS  FAIR      20   8  60 N7        30.11F WCI  11
A. F. ACADEMY  FAIR      18   7  60 NE9       30.09F WCI   7
SCHRIEVER AFB  FAIR      29  -2  27 W6        30.11F WCI  22
CHEYENNE MTN   FAIR      37 -11  12 S12       30.05F
ELLICOTT         N/A    N/A N/A N/A NE3         N/A
FALCON         FAIR      22   3  44 SW12      30.11S WCI  11
FORT CARSON    FAIR      20   9  62 N5        30.09F WCI  13
LIMON          FAIR       5   3  91 N5        30.08F WCI  -4
MONUMENT HILL  FAIR      18   3  53 SW10      30.10F WCI   6
CANON CITY     FAIR      34   7  32 W15G22    30.13F WCI  24
WALSENBURG     FAIR      32   7  34 SW13      30.14F WCI  22
TRINIDAD       FAIR      24  14  65 SW18      30.15F WCI  10
$$

COZ042>045-048>051-090-091-151400-
...NORTHEAST COLORADO...

CITY           SKY/WX    TMP DP  RH WIND       PRES   REMARKS
GREELEY ARPT   FAIR      10   5  80 CALM      30.05F
AKRON          FAIR      17  10  74 W14       30.03F WCI   3
BURLINGTON     FAIR      21  17  84 SW12      30.08F WCI   9
WRAY           FAIR      16  12  86 CALM      30.06F
YUMA           FAIR      19  12  73 W9        30.04F WCI   9
STERLING       FAIR      14  10  85 S9        30.05F WCI   2
HOLYOKE        FAIR      19  14  79 W10       30.04F WCI   8
FORT MORGAN    FAIR      13  11  90 W9        30.06F WCI   1
$$

COZ086-089-092>099-151400-
...SOUTHEAST COLORADO...

CITY           SKY/WX    TMP DP  RH WIND       PRES   REMARKS
PUEBLO         FAIR      14  11  87 SW3       30.14F
LA JUNTA       FAIR      19  16  88 SW10      30.16F WCI   7
LAMAR          FAIR      16  12  84 SW10      30.15F WCI   4
SPRINGFIELD      N/A     15  13  91 W3        30.16F
$$



USA.gov is the U.S. government's official web portal to all federal, state and local government web resources and services.